Change the Weather History Date:

Friday, June 6, 2014

  Actual Average Record
Temperature  
Mean Temperature 66 °F -  
Max Temperature 75 °F - - ()
Min Temperature 57 °F - - ()
Cooling Degree Days 1    
Growing Degree Days 16 (Base 50)    
Moisture  
Dew Point 57 °F    
Average Humidity 73    
Maximum Humidity 94    
Minimum Humidity 44    
Precipitation  
Precipitation 0.00 in - - ()
Sea Level Pressure  
Sea Level Pressure 30.14 in    
Wind  
Wind Speed 6 mph ()    
Max Wind Speed 14 mph    
Max Gust Speed -    
Visibility 6.2 miles    
Events      
T = Trace of Precipitation, MM = Missing Value Source: Averaged Metar Reports

Daily Weather History Graph

Daily Weather History Graph

Search for Another Location

Airport or City:

Trip Planner

Search our weather history database for the weather conditions in past years. The results will help you decide how hot, cold, wet, or windy it might be!

Date:

Astronomy

Jun. 06, 2014 Rise Set
Actual Time 6:31 AM AEST 4:57 PM AEST
Civil Twilight 6:06 AM AEST 5:22 PM AEST
Nautical Twilight 5:37 AM AEST 5:51 PM AEST
Astronomical Twilight 5:08 AM AEST 6:20 PM AEST
Moon 12:02 PM AEST (6/6) No Moon Set
Length of Visible Light 11h 16m
Length of Day
10h 25m
First Quarter, 52% of the Moon is Illuminated
Jun 6
First Quarter
Jun 13
Full
Jun 20
Last Quarter
Jun 27
New
Jul 5
First Quarter

Hourly Weather History & Observations

Time (AEST) Temp. Dew Point Humidity Pressure Visibility Wind Dir Wind Speed Gust Speed Precip Events Conditions
12:00 AM 63 °F 57 °F 75% 30.19 in - SSW 6.9 mph - -  
12:00 AM 62.6 °F 57.2 °F 82% 30.18 in 6.2 mi SSW 6.9 mph - N/A   Unknown
12:30 AM 64.4 °F 57.2 °F 77% 30.18 in 6.2 mi SSW 5.8 mph - N/A   Unknown
1:00 AM 62.6 °F 57.2 °F 82% 30.15 in 6.2 mi SSW 5.8 mph - N/A   Unknown
1:30 AM 62.6 °F 57.2 °F 82% 30.15 in 6.2 mi WSW 4.6 mph - N/A   Unknown
2:00 AM 62.6 °F 57.2 °F 82% 30.15 in 6.2 mi Calm Calm - N/A   Unknown
2:30 AM 59.0 °F 55.4 °F 88% 30.15 in 6.2 mi SE 1.2 mph - N/A   Unknown
3:00 AM 58 °F 56 °F 89% 30.15 in - SE 1.2 mph - -  
3:00 AM 59.0 °F 55.4 °F 88% 30.12 in 6.2 mi SE 1.2 mph - N/A   Unknown
3:30 AM 59.0 °F 57.2 °F 94% 30.12 in 6.2 mi Calm Calm - N/A   Unknown
4:00 AM 59.0 °F 57.2 °F 94% 30.12 in 6.2 mi South 4.6 mph - N/A   Unknown
4:30 AM 57.2 °F 55.4 °F 94% 30.12 in 6.2 mi Calm Calm - N/A   Unknown
5:00 AM 57.2 °F 55.4 °F 94% 30.12 in 6.2 mi South 1.2 mph - N/A   Unknown
5:30 AM 59.0 °F 55.4 °F 88% 30.15 in 6.2 mi South 3.5 mph - N/A   Unknown
6:00 AM 59 °F 57 °F 90% 30.17 in - Calm Calm - -  
6:00 AM 59.0 °F 57.2 °F 94% 30.15 in 6.2 mi Calm Calm - N/A   Unknown
6:30 AM 59.0 °F 57.2 °F 94% 30.15 in 6.2 mi South 6.9 mph - N/A   Unknown
7:00 AM 59.0 °F 57.2 °F 94% 30.15 in 6.2 mi SSE 5.8 mph - N/A   Unknown
7:30 AM 62.6 °F 57.2 °F 82% 30.18 in 6.2 mi SSW 9.2 mph - N/A   Unknown
8:00 AM 64.4 °F 57.2 °F 77% 30.18 in 6.2 mi SSW 6.9 mph - N/A   Unknown
8:30 AM 66.2 °F 57.2 °F 73% 30.18 in 6.2 mi SSW 10.4 mph - N/A   Unknown
9:00 AM 68 °F 58 °F 63% 30.19 in - SSW 9.2 mph - -  
9:00 AM 68.0 °F 59.0 °F 73% 30.18 in 6.2 mi SSW 9.2 mph - N/A   Unknown
9:30 AM 69.8 °F 59.0 °F 68% 30.18 in 6.2 mi SSW 9.2 mph - N/A   Unknown
10:00 AM 69.8 °F 57.2 °F 64% 30.18 in 6.2 mi South 11.5 mph - N/A   Unknown
10:30 AM 71.6 °F 57.2 °F 60% 30.15 in 6.2 mi South 11.5 mph - N/A   Unknown
11:00 AM 71.6 °F 59.0 °F 64% 30.15 in 6.2 mi South 12.7 mph - N/A   Unknown
11:30 AM 73.4 °F 57.2 °F 57% 30.12 in 6.2 mi South 11.5 mph - N/A   Unknown
12:00 PM 73 °F 58 °F 49% 30.14 in - SSW 10.4 mph - -  
12:00 PM 73.4 °F 57.2 °F 57% 30.12 in 6.2 mi SSW 10.4 mph - N/A   Scattered Clouds
12:30 PM 73.4 °F 57.2 °F 57% 30.12 in 6.2 mi South 9.2 mph - N/A   Scattered Clouds
1:00 PM 75.2 °F 57.2 °F 53% 30.09 in 6.2 mi South 11.5 mph - N/A   Unknown
1:30 PM 75.2 °F 57.2 °F 53% 30.09 in 6.2 mi South 11.5 mph - N/A   Unknown
2:00 PM 75.2 °F 57.2 °F 53% 30.09 in 6.2 mi South 11.5 mph - N/A   Unknown
2:30 PM 73.4 °F 55.4 °F 53% 30.09 in 6.2 mi South 11.5 mph - N/A   Unknown
3:00 PM 73 °F 56 °F 44% 30.11 in - South 13.8 mph - -  
3:00 PM 73.4 °F 55.4 °F 53% 30.09 in 6.2 mi South 13.8 mph - N/A   Unknown
3:30 PM 71.6 °F 55.4 °F 57% 30.09 in 6.2 mi South 13.8 mph - N/A   Unknown
4:00 PM 69.8 °F 57.2 °F 64% 30.09 in 6.2 mi South 11.5 mph - N/A   Unknown
4:30 PM 68.0 °F 57.2 °F 68% 30.09 in 6.2 mi South 10.4 mph - N/A   Unknown
5:00 PM 66.2 °F 57.2 °F 73% 30.12 in 6.2 mi South 11.5 mph - N/A   Unknown
5:30 PM 66.2 °F 57.2 °F 73% 30.12 in 6.2 mi South 8.1 mph - N/A   Scattered Clouds
6:00 PM 65 °F 56 °F 66% 30.14 in - South 8.1 mph - -  
6:00 PM 64.4 °F 57.2 °F 77% 30.12 in 6.2 mi South 8.1 mph - N/A   Unknown
6:30 PM 64.4 °F 55.4 °F 73% 30.12 in 6.2 mi South 6.9 mph - N/A   Scattered Clouds
7:00 PM 64.4 °F 57.2 °F 77% 30.15 in 6.2 mi SSW 6.9 mph - N/A   Scattered Clouds
7:30 PM 64.4 °F 57.2 °F 77% 30.15 in 6.2 mi SW 8.1 mph - N/A   Unknown
8:00 PM 64.4 °F 57.2 °F 77% 30.15 in 6.2 mi SW 8.1 mph - N/A   Unknown
8:30 PM 62.6 °F 57.2 °F 82% 30.15 in 6.2 mi SW 4.6 mph - N/A   Unknown
9:00 PM 64 °F 56 °F 68% 30.17 in - SSW 8.1 mph - -  
9:00 PM 64.4 °F 55.4 °F 73% 30.15 in 6.2 mi SSW 8.1 mph - N/A   Unknown
9:30 PM 64.4 °F 55.4 °F 73% 30.15 in 6.2 mi SW 6.9 mph - N/A   Unknown
10:00 PM 64.4 °F 55.4 °F 73% 30.15 in 6.2 mi SW 8.1 mph - N/A   Unknown
10:30 PM 64.4 °F 57.2 °F 77% 30.15 in 6.2 mi SSW 9.2 mph - N/A   Unknown
11:00 PM 64.4 °F 57.2 °F 77% 30.15 in 6.2 mi SSW 8.1 mph - N/A   Unknown
11:30 PM 64.4 °F 57.2 °F 77% 30.15 in 6.2 mi SW 9.2 mph - N/A   Unknown